7 * 24
多渠道服务支持
STARLINK-32419 是 SpaceX Starlink 卫星互联网项目中的一个近地轨道卫星,属于其第二代卫星星座计划的一部分。该卫星由 SpaceX 设计并发射,旨在为全球用户提供高速、低延迟的宽带互联网服务。它运行在约 550 公里的轨道高度,配备先进通信设备,支持 Ka 和 Ku 频段。STARLINK-32419 的部署有助于提升 Starlink 网络的覆盖范围和性能,特别是在偏远和网络基础设施薄弱的地区。
美国
(US)
| 数据来源 | 国际轨道数据 |
| 星历时间: | 2025-12-19T11:04:10+0800 1天前 查看轨道信息 |
| 半长轴: | 6861.156km |
| 偏心率: | 0.0001289 |
| 轨道倾角: | 43.001° |
| 近地点辐角 | 269.529° |
| 升交点赤经 | 249.638° |
| 平近点角 | 90.541° |
| 近地点: | 482.134km |
| 远地点: | 483.904km |
| 周期: | 94.266分钟 |
| 每日圈数: | 15.275901 |